Flag for Germany Weather past 2 weeks in Heinsberg, North Rhine-Westphalia, Germany

Now
58 °F

Overcast.


Feels Like: 58 °F
Forecast: 46 / 59 °F
Wind: 6 mph from North

Location: Maastricht Airport Zuid Limburg

Current Time: May 25, 2015 at 3:30:43 PM

Latest Report: May 25, 2015 at 2:00 PM


Visibility: 10 mi

Pressure: 29.98 "Hg

Humidity: 80%

Dew point: 52 °F

Location of HeinsbergLocation

Historic Weather in Heinsberg — Graph

°F

Heinsberg temperature yesterday

Maximum temperature yesterday: 67 °F (at 6:00 PM)
Minimum temperature yesterday: 45 °F (at 6:00 AM)
Average temperature yesterday: 58 °F

Past Weeks' High & Low Weather Summary

 TemperatureHumidityPressure
High79 °F (May 11, 4:00 PM)99% (May 17, 3:00 AM)30.36 "Hg (May 17, 3:00 AM)
Low39 °F (May 21, 6:00 AM)34% (May 11, 4:00 PM)29.68 "Hg (May 18, 7:00 PM)
Average56 °F68%30.09 "Hg
* Reported May 10 2:00 PM — May 25 2:00 PM, Heinsberg, Weather by CustomWeather, © 2015

Note: Actual official high and low records may vary slightly from our data, if they occured in-between our weather recording intervals... More about our weather records

Advertising

Heinsberg weather history for previous 24 hours

 ConditionsComfort  
Time TempWeatherWind HumidityBarometerVisibility
2:00 PM
Mon, May 25
58 °FOvercast.6 mph80%29.98 "Hg10 mi
1:00 PM59 °FRain showers. Overcast.5 mph80%29.98 "Hg6 mi
12:00 PM60 °FFog.2 mph85%29.98 "Hg5 mi
11:00 AM55 °FFog.3 mph94%30.00 "Hg2 mi
10:00 AM54 °FFog.3 mph94%30.01 "Hg3 mi
9:00 AM54 °FLow clouds.3 mph97%30.01 "Hg2 mi
8:00 AM53 °FDrizzle. Low clouds.3 mph97%30.01 "Hg1 mi
7:00 AM52 °FDrizzle. Low clouds.1 mph93%30.01 "Hg3 mi
6:00 AM52 °FOvercast.2 mph78%30.01 "Hg11 mi
4:00 AM52 °FOvercast.2 mph76%30.03 "Hg16 mi
3:00 AM52 °FOvercast.2 mph73%30.03 "Hg22 mi
2:00 AM51 °FOvercast.2 mph67%30.04 "Hg22 mi
1:00 AM51 °FOvercast.No wind62%30.05 "Hg19 mi
12:00 AM54 °FClear.2 mph53%30.05 "Hg22 mi
10:00 PM
Sun, May 24
59 °FClear.2 mph47%30.04 "Hg22 mi
9:00 PM62 °FSunny.1 mph50%30.04 "Hg17 mi
8:00 PM65 °FSunny.3 mph43%30.04 "Hg15 mi
7:00 PM67 °FSunny.3 mph44%30.04 "Hg16 mi
6:00 PM67 °FPassing clouds.3 mph47%30.06 "Hg12 mi
5:00 PM67 °FPassing clouds.3 mph48%30.07 "Hg14 mi
4:00 PM67 °FPassing clouds.3 mph47%30.08 "Hg12 mi
3:00 PM65 °FPartly sunny.3 mph47%30.10 "Hg13 mi
Weather by CustomWeather, © 2015

See weather overviewHow to use our weather pages